Time,TemperatureF,DewpointF,PressureIn,WindDirection,WindDirectionDegrees,WindSpeedMPH,WindSpeedGustMPH,Humidity,HourlyPrecipIn,Conditions,Clouds,dailyrainin,SoftwareType,DateUTC
2013-03-16 00:02:00,32.8,32.0,29.84,East,90,2.0,5.0,96,0.00,,,0.00,weatherlink.com 1.10,2013-03-16 04:02:00,
2013-03-16 00:17:00,32.8,32.0,29.83,East,90,2.0,5.0,96,0.00,,,0.00,weatherlink.com 1.10,2013-03-16 04:17:00,
2013-03-16 00:32:00,32.8,32.0,29.83,East,90,1.0,2.0,96,0.00,,,0.00,weatherlink.com 1.10,2013-03-16 04:32:00,
2013-03-16 00:47:00,32.8,32.0,29.84,East,90,2.0,3.0,96,0.00,,,0.00,weatherlink.com 1.10,2013-03-16 04:47:00,
2013-03-16 01:02:00,32.8,32.0,29.83,East,90,0.0,2.0,96,0.00,,,0.00,weatherlink.com 1.10,2013-03-16 05:02:00,
2013-03-16 01:17:00,32.8,32.0,29.83,East,90,1.0,5.0,97,0.00,,,0.00,weatherlink.com 1.10,2013-03-16 05:17:00,
2013-03-16 01:32:00,32.8,32.0,29.82,East,84,3.0,3.0,97,0.00,,,0.00,weatherlink.com 1.10,2013-03-16 05:32:00,
2013-03-16 01:47:00,32.8,32.0,29.82,East,84,1.0,3.0,97,0.00,,,0.00,weatherlink.com 1.10,2013-03-16 05:47:00,
2013-03-16 02:02:00,32.7,32.0,29.81,East,84,0.0,3.0,97,0.00,,,0.00,weatherlink.com 1.10,2013-03-16 06:02:00,
2013-03-16 02:17:00,32.7,32.0,29.81,East,84,1.0,2.0,97,0.00,,,0.00,weatherlink.com 1.10,2013-03-16 06:17:00,
2013-03-16 02:32:00,32.7,32.0,29.81,East,96,2.0,6.0,97,0.00,,,0.00,weatherlink.com 1.10,2013-03-16 06:32:00,
2013-03-16 02:47:00,32.3,32.0,29.80,East,99,5.0,10.0,97,0.00,,,0.00,weatherlink.com 1.10,2013-03-16 06:47:00,
2013-03-16 03:02:00,31.9,31.0,29.80,ENE,70,4.0,10.0,97,0.00,,,0.00,weatherlink.com 1.10,2013-03-16 07:02:00,
2013-03-16 03:17:00,31.2,30.0,29.79,ESE,103,5.0,10.0,96,0.00,,,0.00,weatherlink.com 1.10,2013-03-16 07:17:00,
2013-03-16 03:32:00,30.7,30.0,29.79,East,86,8.0,16.0,96,0.00,,,0.00,weatherlink.com 1.10,2013-03-16 07:32:00,
2013-03-16 03:47:00,30.1,29.0,29.79,ESE,120,5.0,11.0,95,0.00,,,0.00,weatherlink.com 1.10,2013-03-16 07:47:00,
2013-03-16 04:02:00,29.7,29.0,29.79,East,85,6.0,11.0,95,0.00,,,0.00,weatherlink.com 1.10,2013-03-16 08:02:00,
2013-03-16 04:17:00,29.3,28.0,29.78,East,96,6.0,14.0,95,0.00,,,0.00,weatherlink.com 1.10,2013-03-16 08:17:00,
2013-03-16 04:32:00,29.1,28.0,29.78,East,101,3.0,11.0,96,0.00,,,0.00,weatherlink.com 1.10,2013-03-16 08:32:00,
2013-03-16 04:47:00,28.8,28.0,29.80,East,80,2.0,9.0,96,0.00,,,0.00,weatherlink.com 1.10,2013-03-16 08:47:00,
2013-03-16 05:02:00,28.5,27.0,29.78,East,94,8.0,13.0,95,0.00,,,0.00,weatherlink.com 1.10,2013-03-16 09:02:00,
2013-03-16 05:17:00,28.3,27.0,29.77,East,92,3.0,11.0,96,0.00,,,0.00,weatherlink.com 1.10,2013-03-16 09:17:00,
2013-03-16 05:32:00,28.2,27.0,29.77,East,80,3.0,10.0,96,0.00,,,0.00,weatherlink.com 1.10,2013-03-16 09:32:00,
2013-03-16 05:47:00,28.1,27.0,29.76,ESE,109,4.0,7.0,96,0.00,,,0.00,weatherlink.com 1.10,2013-03-16 09:47:00,
2013-03-16 06:03:00,28.1,27.0,29.76,East,88,6.0,8.0,96,0.00,,,0.00,weatherlink.com 1.10,2013-03-16 10:03:00,
2013-03-16 06:18:00,27.9,27.0,29.76,ENE,71,5.0,9.0,96,0.00,,,0.00,weatherlink.com 1.10,2013-03-16 10:18:00,
2013-03-16 06:33:00,27.8,27.0,29.76,ENE,64,10.0,10.0,96,0.00,,,0.00,weatherlink.com 1.10,2013-03-16 10:33:00,
2013-03-16 06:48:00,27.6,26.0,29.77,East,83,2.0,11.0,95,0.00,,,0.00,weatherlink.com 1.10,2013-03-16 10:48:00,
2013-03-16 07:03:00,27.4,26.0,29.76,ENE,78,2.0,12.0,96,0.00,,,0.00,weatherlink.com 1.10,2013-03-16 11:03:00,
2013-03-16 07:19:00,27.3,26.0,29.77,ENE,78,2.0,11.0,96,0.00,,,0.00,weatherlink.com 1.10,2013-03-16 11:19:00,
2013-03-16 07:33:00,27.4,26.0,29.77,East,90,3.0,9.0,96,0.00,,,0.00,weatherlink.com 1.10,2013-03-16 11:33:00,
2013-03-16 07:48:00,27.5,27.0,29.78,ESE,103,3.0,10.0,96,0.00,,,0.00,weatherlink.com 1.10,2013-03-16 11:48:00,
2013-03-16 08:03:00,27.5,27.0,29.78,East,81,2.0,8.0,96,0.00,,,0.00,weatherlink.com 1.10,2013-03-16 12:03:00,
2013-03-16 08:18:00,27.5,27.0,29.77,ENE,78,4.0,7.0,96,0.00,,,0.00,weatherlink.com 1.10,2013-03-16 12:18:00,
2013-03-16 08:33:00,27.6,27.0,29.77,ENE,76,2.0,8.0,96,0.00,,,0.00,weatherlink.com 1.10,2013-03-16 12:33:00,
2013-03-16 08:48:00,27.6,27.0,29.78,East,90,3.0,8.0,96,0.00,,,0.00,weatherlink.com 1.10,2013-03-16 12:48:00,
2013-03-16 09:03:00,27.7,27.0,29.77,ENE,59,7.0,8.0,96,0.00,,,0.00,weatherlink.com 1.10,2013-03-16 13:03:00,
2013-03-16 09:18:00,27.8,27.0,29.77,ENE,78,4.0,9.0,96,0.00,,,0.00,weatherlink.com 1.10,2013-03-16 13:18:00,
2013-03-16 09:35:00,27.9,27.0,29.78,NE,51,5.0,10.0,96,0.00,,,0.00,weatherlink.com 1.10,2013-03-16 13:35:00,
2013-03-16 09:48:00,27.8,27.0,29.78,ENE,74,2.0,12.0,96,0.00,,,0.00,weatherlink.com 1.10,2013-03-16 13:48:00,
2013-03-16 10:03:00,27.9,27.0,29.79,East,85,8.0,12.0,95,0.00,,,0.00,weatherlink.com 1.10,2013-03-16 14:03:00,
2013-03-16 10:18:00,27.9,27.0,29.80,East,85,2.0,10.0,95,0.00,,,0.00,weatherlink.com 1.10,2013-03-16 14:18:00,
2013-03-16 10:33:00,27.9,27.0,29.79,ENE,59,3.0,9.0,95,0.00,,,0.00,weatherlink.com 1.10,2013-03-16 14:33:00,
2013-03-16 10:48:00,27.9,27.0,29.79,NE,46,4.0,12.0,95,0.00,,,0.00,weatherlink.com 1.10,2013-03-16 14:48:00,
2013-03-16 11:03:00,28.0,27.0,29.79,NE,49,0.0,10.0,95,0.00,,,0.00,weatherlink.com 1.10,2013-03-16 15:03:00,
2013-03-16 11:18:00,28.2,27.0,29.79,ENE,67,3.0,8.0,95,0.00,,,0.00,weatherlink.com 1.10,2013-03-16 15:18:00,
2013-03-16 11:33:00,28.1,27.0,29.80,East,94,1.0,8.0,95,0.00,,,0.00,weatherlink.com 1.10,2013-03-16 15:33:00,
2013-03-16 11:48:00,28.1,27.0,29.80,NE,48,1.0,12.0,95,0.00,,,0.00,weatherlink.com 1.10,2013-03-16 15:48:00,
2013-03-16 12:03:00,28.2,27.0,29.81,NE,44,4.0,12.0,95,0.00,,,0.00,weatherlink.com 1.10,2013-03-16 16:03:00,
2013-03-16 12:18:00,28.5,27.0,29.83,NE,49,2.0,10.0,95,0.00,,,0.00,weatherlink.com 1.10,2013-03-16 16:18:00,
2013-03-16 12:33:00,28.5,27.0,29.84,ENE,60,3.0,10.0,94,0.00,,,0.00,weatherlink.com 1.10,2013-03-16 16:33:00,
2013-03-16 12:48:00,29.0,28.0,29.84,NE,51,2.0,8.0,94,0.00,,,0.00,weatherlink.com 1.10,2013-03-16 16:48:00,
2013-03-16 13:03:00,28.7,27.0,29.85,NE,55,8.0,12.0,93,0.00,,,0.00,weatherlink.com 1.10,2013-03-16 17:03:00,
2013-03-16 13:18:00,28.9,27.0,29.86,NE,51,8.0,12.0,93,0.00,,,0.00,weatherlink.com 1.10,2013-03-16 17:18:00,
2013-03-16 13:33:00,29.3,28.0,29.87,NNE,28,8.0,10.0,93,0.00,,,0.00,weatherlink.com 1.10,2013-03-16 17:33:00,
2013-03-16 13:48:00,29.2,28.0,29.88,NNE,27,5.0,13.0,93,0.00,,,0.00,weatherlink.com 1.10,2013-03-16 17:48:00,
2013-03-16 14:03:00,29.4,28.0,29.88,NE,34,4.0,11.0,94,0.00,,,0.00,weatherlink.com 1.10,2013-03-16 18:03:00,
2013-03-16 14:18:00,29.6,28.0,29.88,NNE,30,6.0,11.0,94,0.00,,,0.00,weatherlink.com 1.10,2013-03-16 18:18:00,
2013-03-16 14:33:00,29.7,28.0,29.89,NNE,17,4.0,13.0,94,0.00,,,0.00,weatherlink.com 1.10,2013-03-16 18:33:00,
2013-03-16 14:48:00,30.0,29.0,29.89,NNE,32,9.0,12.0,94,0.00,,,0.00,weatherlink.com 1.10,2013-03-16 18:48:00,
2013-03-16 15:03:00,30.0,29.0,29.89,North,5,2.0,11.0,94,0.00,,,0.00,weatherlink.com 1.10,2013-03-16 19:03:00,
2013-03-16 15:18:00,30.4,29.0,29.89,NNE,16,7.0,9.0,93,0.01,,,0.01,weatherlink.com 1.10,2013-03-16 19:18:00,
2013-03-16 15:33:00,30.2,29.0,29.90,NE,38,9.0,12.0,94,0.01,,,0.01,weatherlink.com 1.10,2013-03-16 19:33:00,
2013-03-16 15:48:00,30.3,29.0,29.91,NNW,348,5.0,10.0,93,0.01,,,0.01,weatherlink.com 1.10,2013-03-16 19:48:00,
2013-03-16 16:03:00,29.9,28.0,29.91,NNE,13,8.0,13.0,93,0.01,,,0.01,weatherlink.com 1.10,2013-03-16 20:03:00,
2013-03-16 16:18:00,30.0,28.0,29.91,NNE,32,4.0,9.0,93,0.00,,,0.01,weatherlink.com 1.10,2013-03-16 20:18:00,
2013-03-16 16:33:00,29.9,28.0,29.92,NNW,347,4.0,9.0,92,0.00,,,0.01,weatherlink.com 1.10,2013-03-16 20:33:00,
2013-03-16 16:48:00,31.2,29.0,29.93,NNW,327,2.0,5.0,92,0.00,,,0.01,weatherlink.com 1.10,2013-03-16 20:48:00,
2013-03-16 17:03:00,30.9,29.0,29.93,NNW,329,3.0,8.0,91,0.00,,,0.01,weatherlink.com 1.10,2013-03-16 21:03:00,
2013-03-16 17:18:00,30.6,28.0,29.93,NNW,342,3.0,11.0,90,0.00,,,0.01,weatherlink.com 1.10,2013-03-16 21:18:00,
2013-03-16 17:34:00,30.5,28.0,29.94,North,360,6.0,9.0,90,0.00,,,0.01,weatherlink.com 1.10,2013-03-16 21:34:00,
2013-03-16 17:49:00,30.3,28.0,29.95,North,355,3.0,8.0,90,0.00,,,0.01,weatherlink.com 1.10,2013-03-16 21:49:00,
2013-03-16 18:04:00,30.4,28.0,29.95,NNW,331,2.0,6.0,89,0.00,,,0.01,weatherlink.com 1.10,2013-03-16 22:04:00,
2013-03-16 18:19:00,30.4,27.0,29.96,NNW,343,4.0,6.0,88,0.00,,,0.01,weatherlink.com 1.10,2013-03-16 22:19:00,
2013-03-16 18:34:00,30.3,28.0,29.97,North,355,4.0,6.0,89,0.00,,,0.01,weatherlink.com 1.10,2013-03-16 22:34:00,
2013-03-16 18:49:00,30.2,27.0,29.98,NNW,338,4.0,7.0,89,0.00,,,0.01,weatherlink.com 1.10,2013-03-16 22:49:00,
2013-03-16 19:04:00,30.0,27.0,29.98,NNE,18,2.0,7.0,89,0.00,,,0.01,weatherlink.com 1.10,2013-03-16 23:04:00,
2013-03-16 19:19:00,29.9,27.0,29.99,North,5,3.0,11.0,88,0.00,,,0.01,weatherlink.com 1.10,2013-03-16 23:19:00,
2013-03-16 19:34:00,29.7,27.0,30.00,NE,46,5.0,7.0,88,0.00,,,0.01,weatherlink.com 1.10,2013-03-16 23:34:00,
2013-03-16 19:49:00,29.4,26.0,30.00,NE,46,2.0,8.0,88,0.00,,,0.01,weatherlink.com 1.10,2013-03-16 23:49:00,
2013-03-16 20:04:00,29.2,26.0,30.00,NNE,30,3.0,6.0,88,0.00,,,0.01,weatherlink.com 1.10,2013-03-17 00:04:00,
2013-03-16 20:19:00,29.0,26.0,30.01,NE,36,5.0,7.0,88,0.00,,,0.01,weatherlink.com 1.10,2013-03-17 00:19:00,
2013-03-16 20:34:00,29.0,26.0,30.01,NE,34,1.0,4.0,88,0.00,,,0.01,weatherlink.com 1.10,2013-03-17 00:34:00,
2013-03-16 20:49:00,28.9,26.0,30.02,NE,34,0.0,3.0,88,0.00,,,0.01,weatherlink.com 1.10,2013-03-17 00:49:00,
2013-03-16 21:04:00,28.8,26.0,30.03,NE,42,2.0,5.0,88,0.00,,,0.01,weatherlink.com 1.10,2013-03-17 01:04:00,
2013-03-16 21:19:00,28.8,26.0,30.03,NE,42,1.0,2.0,88,0.00,,,0.01,weatherlink.com 1.10,2013-03-17 01:19:00,
2013-03-16 21:34:00,28.7,26.0,30.03,NE,42,0.0,1.0,89,0.00,,,0.01,weatherlink.com 1.10,2013-03-17 01:34:00,
2013-03-16 21:49:00,28.6,26.0,30.03,NE,42,0.0,1.0,89,0.00,,,0.01,weatherlink.com 1.10,2013-03-17 01:49:00,
2013-03-16 22:04:00,28.7,26.0,30.04,NE,42,1.0,2.0,89,0.00,,,0.01,weatherlink.com 1.10,2013-03-17 02:04:00,
2013-03-16 22:19:00,28.7,26.0,30.04,NE,42,0.0,2.0,88,0.00,,,0.01,weatherlink.com 1.10,2013-03-17 02:19:00,
2013-03-16 22:34:00,28.8,26.0,30.05,NE,42,1.0,2.0,88,0.00,,,0.01,weatherlink.com 1.10,2013-03-17 02:34:00,
2013-03-16 22:49:00,28.7,26.0,30.05,NW,312,1.0,3.0,88,0.00,,,0.01,weatherlink.com 1.10,2013-03-17 02:49:00,
2013-03-16 23:04:00,28.8,26.0,30.05,WNW,286,2.0,3.0,88,0.00,,,0.01,weatherlink.com 1.10,2013-03-17 03:04:00,
2013-03-16 23:19:00,28.8,26.0,30.06,WNW,282,2.0,4.0,90,0.00,,,0.01,weatherlink.com 1.10,2013-03-17 03:19:00,
2013-03-16 23:34:00,28.8,26.0,30.05,WNW,284,2.0,6.0,89,0.00,,,0.01,weatherlink.com 1.10,2013-03-17 03:34:00,
2013-03-16 23:49:00,28.7,26.0,30.06,WNW,286,4.0,7.0,88,0.00,,,0.01,weatherlink.com 1.10,2013-03-17 03:49:00,